TimeCDT,TemperatureF,Dew PointF,Humidity,Sea Level PressureIn,VisibilityMPH,Wind Direction,Wind SpeedMPH,Gust SpeedMPH,PrecipitationIn,Events,Conditions,WindDirDegrees,DateUTC
12:15 AM,45.1,34.2,65,30.18,10.0,WSW,3.5,-,N/A,,Clear,250,2013-10-22 05:15:00
12:35 AM,45.0,34.3,66,30.17,10.0,Calm,Calm,-,N/A,,Clear,0,2013-10-22 05:35:00
12:55 AM,45.0,34.3,66,30.17,10.0,SSW,3.5,-,N/A,,Clear,200,2013-10-22 05:55:00
1:15 AM,44.6,34.5,68,30.17,10.0,SW,5.8,-,N/A,,Clear,230,2013-10-22 06:15:00
1:35 AM,42.4,34.0,72,30.17,10.0,SW,5.8,-,N/A,,Clear,230,2013-10-22 06:35:00
1:55 AM,42.1,34.0,73,30.17,10.0,WSW,5.8,-,N/A,,Clear,250,2013-10-22 06:55:00
2:15 AM,41.2,33.4,74,30.17,10.0,West,6.9,-,N/A,,Clear,270,2013-10-22 07:15:00
2:35 AM,41.4,33.8,74,30.18,10.0,West,8.1,-,N/A,,Clear,270,2013-10-22 07:35:00
2:55 AM,42.3,33.8,72,30.18,10.0,West,8.1,-,N/A,,Clear,260,2013-10-22 07:55:00
3:15 AM,42.3,33.3,70,30.18,10.0,WSW,6.9,-,N/A,,Clear,250,2013-10-22 08:15:00
3:35 AM,41.5,32.7,71,30.18,10.0,WSW,6.9,-,N/A,,Clear,250,2013-10-22 08:35:00
3:55 AM,41.4,33.1,72,30.17,10.0,WSW,6.9,-,N/A,,Clear,240,2013-10-22 08:55:00
4:15 AM,40.8,33.1,74,30.16,10.0,WSW,8.1,-,N/A,,Clear,250,2013-10-22 09:15:00
4:35 AM,40.3,32.7,74,30.16,10.0,West,8.1,-,N/A,,Clear,260,2013-10-22 09:35:00
4:55 AM,40.5,32.7,74,30.16,10.0,West,8.1,-,N/A,,Clear,260,2013-10-22 09:55:00
5:15 AM,41.0,33.3,74,30.16,10.0,West,6.9,-,N/A,,Clear,270,2013-10-22 10:15:00
5:35 AM,40.1,32.5,74,30.16,10.0,West,6.9,-,N/A,,Clear,260,2013-10-22 10:35:00
5:55 AM,40.3,32.9,75,30.16,10.0,West,6.9,-,N/A,,Clear,260,2013-10-22 10:55:00
6:15 AM,39.7,32.7,76,30.16,10.0,West,6.9,-,N/A,,Clear,260,2013-10-22 11:15:00
6:35 AM,39.6,32.9,77,30.16,10.0,West,5.8,-,N/A,,Clear,260,2013-10-22 11:35:00
6:55 AM,39.2,32.4,76,30.17,10.0,West,5.8,-,N/A,,Clear,270,2013-10-22 11:55:00
7:15 AM,39.7,32.5,75,30.17,10.0,WSW,6.9,-,N/A,,Scattered Clouds,250,2013-10-22 12:15:00
7:35 AM,39.4,32.5,76,30.17,10.0,WSW,5.8,-,N/A,,Scattered Clouds,240,2013-10-22 12:35:00
7:55 AM,38.7,32.5,79,30.17,10.0,West,6.9,-,N/A,,Scattered Clouds,270,2013-10-22 12:55:00
8:15 AM,39.2,32.7,78,30.17,10.0,West,8.1,-,N/A,,Scattered Clouds,280,2013-10-22 13:15:00
8:35 AM,41.7,34.0,74,30.17,10.0,West,5.8,-,N/A,,Scattered Clouds,260,2013-10-22 13:35:00
8:55 AM,44.1,34.5,69,30.17,10.0,West,3.5,-,N/A,,Clear,260,2013-10-22 13:55:00
9:15 AM,46.9,35.6,65,30.18,10.0,West,4.6,-,N/A,,Clear,270,2013-10-22 14:15:00
9:35 AM,51.4,36.5,57,30.18,10.0,West,8.1,-,N/A,,Clear,260,2013-10-22 14:35:00
9:55 AM,55.2,36.1,49,30.17,10.0,West,9.2,-,N/A,,Clear,260,2013-10-22 14:55:00
10:15 AM,59.2,36.5,43,30.18,10.0,West,12.7,-,N/A,,Clear,270,2013-10-22 15:15:00
10:35 AM,62.2,36.1,38,30.17,10.0,West,13.8,-,N/A,,Clear,270,2013-10-22 15:35:00
10:55 AM,64.9,35.6,34,30.16,10.0,West,13.8,-,N/A,,Clear,260,2013-10-22 15:55:00
11:15 AM,67.1,35.8,31,30.16,10.0,West,13.8,-,N/A,,Clear,260,2013-10-22 16:15:00
11:35 AM,69.4,36.1,29,30.16,10.0,West,16.1,20.7,N/A,,Clear,260,2013-10-22 16:35:00
11:55 AM,70.5,36.0,28,30.16,10.0,WNW,15.0,-,N/A,,Clear,290,2013-10-22 16:55:00
12:15 PM,71.4,35.8,27,30.15,10.0,West,12.7,18.4,N/A,,Clear,280,2013-10-22 17:15:00
12:35 PM,73.0,36.0,26,30.14,10.0,West,11.5,16.1,N/A,,Clear,270,2013-10-22 17:35:00
12:55 PM,74.3,36.3,25,30.13,10.0,West,10.4,-,N/A,,Clear,280,2013-10-22 17:55:00
1:15 PM,76.1,36.1,23,30.13,10.0,WNW,12.7,17.3,N/A,,Clear,300,2013-10-22 18:15:00
1:35 PM,77.4,36.3,23,30.11,10.0,West,12.7,16.1,N/A,,Clear,280,2013-10-22 18:35:00
1:55 PM,78.4,36.1,22,30.11,10.0,West,10.4,16.1,N/A,,Clear,280,2013-10-22 18:55:00
2:15 PM,79.7,35.1,20,30.09,10.0,NW,11.5,18.4,N/A,,Clear,310,2013-10-22 19:15:00
2:35 PM,80.8,33.6,18,30.08,10.0,WNW,15.0,18.4,N/A,,Clear,290,2013-10-22 19:35:00
2:55 PM,81.3,32.7,17,30.07,10.0,West,15.0,20.7,N/A,,Clear,280,2013-10-22 19:55:00
3:15 PM,81.9,32.5,17,30.06,10.0,WNW,15.0,19.6,N/A,,Clear,290,2013-10-22 20:15:00
3:35 PM,82.4,32.7,17,30.06,10.0,WNW,12.7,23.0,N/A,,Clear,290,2013-10-22 20:35:00
3:55 PM,82.4,31.5,16,30.06,10.0,WNW,12.7,-,N/A,,Clear,300,2013-10-22 20:55:00
4:15 PM,82.6,30.4,15,30.05,10.0,West,13.8,17.3,N/A,,Clear,280,2013-10-22 21:15:00
4:35 PM,82.9,30.6,15,30.05,10.0,WNW,11.5,17.3,N/A,,Clear,290,2013-10-22 21:35:00
4:55 PM,82.8,30.6,15,30.05,10.0,WNW,12.7,-,N/A,,Clear,290,2013-10-22 21:55:00
5:15 PM,82.8,30.6,15,30.04,10.0,WNW,13.8,-,N/A,,Clear,300,2013-10-22 22:15:00
5:35 PM,82.4,30.6,15,30.04,10.0,WNW,10.4,17.3,N/A,,Clear,300,2013-10-22 22:35:00
5:55 PM,81.9,31.1,16,30.03,10.0,West,8.1,-,N/A,,Clear,280,2013-10-22 22:55:00
6:15 PM,81.1,31.6,17,30.03,10.0,West,5.8,-,N/A,,Clear,280,2013-10-22 23:15:00
6:35 PM,79.7,32.0,18,30.03,10.0,West,5.8,-,N/A,,Clear,280,2013-10-22 23:35:00
6:55 PM,76.8,32.2,20,30.03,10.0,West,6.9,-,N/A,,Clear,280,2013-10-22 23:55:00
7:15 PM,72.7,32.7,23,30.04,10.0,WNW,4.6,-,N/A,,Clear,300,2013-10-23 00:15:00
7:35 PM,70.2,33.1,25,30.05,10.0,NNW,6.9,-,N/A,,Clear,340,2013-10-23 00:35:00
7:55 PM,68.4,34.7,29,30.06,10.0,NNE,5.8,-,N/A,,Clear,30,2013-10-23 00:55:00
8:15 PM,67.3,36.0,32,30.06,10.0,NNE,4.6,-,N/A,,Clear,30,2013-10-23 01:15:00
8:35 PM,66.9,36.3,32,30.07,5.0,NE,4.6,-,N/A,,Clear,40,2013-10-23 01:35:00
8:55 PM,66.4,36.7,33,30.07,10.0,NE,3.5,-,N/A,,Clear,40,2013-10-23 01:55:00
9:15 PM,65.8,37.4,35,30.08,10.0,NE,3.5,-,N/A,,Clear,40,2013-10-23 02:15:00
10:15 PM,61.2,37.9,42,30.10,10.0,NNE,5.8,-,N/A,,Clear,30,2013-10-23 03:15:00
10:35 PM,59.0,38.3,46,30.10,10.0,NNE,8.1,-,N/A,,Clear,20,2013-10-23 03:35:00
10:55 PM,58.5,38.5,47,30.10,7.0,NNE,4.6,-,N/A,,Clear,30,2013-10-23 03:55:00
11:15 PM,58.1,38.7,48,30.10,10.0,NE,4.6,-,N/A,,Clear,50,2013-10-23 04:15:00
11:35 PM,59.0,38.5,47,30.10,10.0,East,3.5,-,N/A,,Clear,80,2013-10-23 04:35:00
11:55 PM,57.7,38.5,49,30.10,10.0,Calm,Calm,-,N/A,,Clear,0,2013-10-23 04:55:00